Time,TemperatureF,DewpointF,PressureIn,WindDirection,WindDirectionDegrees,WindSpeedMPH,WindSpeedGustMPH,Humidity,HourlyPrecipIn,Conditions,Clouds,dailyrainin,SoftwareType,DateUTC
2013-05-12 00:02:00,45.0,33.0,30.17,NNW,337,5.0,7.0,61,-99.99,,,-99.99,,2013-05-12 05:02:00,
2013-05-12 00:11:00,45.0,33.0,30.17,NNW,337,5.0,6.0,65,-99.99,,,-99.99,,2013-05-12 05:11:00,
2013-05-12 00:22:00,44.0,33.0,30.17,NW,315,4.0,5.0,66,-99.99,,,-99.99,,2013-05-12 05:22:00,
2013-05-12 00:31:00,43.0,34.0,30.17,NW,315,3.0,4.0,72,-99.99,,,-99.99,,2013-05-12 05:31:00,
2013-05-12 00:42:00,42.0,34.0,30.17,NW,315,3.0,4.0,73,-99.99,,,-99.99,,2013-05-12 05:42:00,
2013-05-12 00:51:00,42.0,34.0,30.17,NW,315,3.0,4.0,73,-99.99,,,-99.99,,2013-05-12 05:51:00,
2013-05-12 01:01:00,42.0,34.0,30.17,NW,315,4.0,4.0,73,-99.99,,,-99.99,,2013-05-12 06:01:00,
2013-05-12 01:11:00,41.0,34.0,30.17,NW,315,4.0,5.0,76,-99.99,,,-99.99,,2013-05-12 06:11:00,
2013-05-12 01:21:00,41.0,34.0,30.16,NW,315,4.0,5.0,74,-99.99,,,-99.99,,2013-05-12 06:21:00,
2013-05-12 01:32:00,40.0,34.0,30.16,NW,315,4.0,4.0,78,-99.99,,,-99.99,,2013-05-12 06:32:00,
2013-05-12 01:42:00,40.0,34.0,30.16,WNW,292,4.0,4.0,79,-99.99,,,-99.99,,2013-05-12 06:42:00,
2013-05-12 01:51:00,40.0,34.0,30.16,WNW,292,4.0,4.0,77,-99.99,,,-99.99,,2013-05-12 06:51:00,
2013-05-12 02:01:00,40.0,34.0,30.16,WNW,292,3.0,4.0,79,-99.99,,,-99.99,,2013-05-12 07:01:00,
2013-05-12 02:11:00,40.0,33.0,30.16,WNW,292,2.0,3.0,77,-99.99,,,-99.99,,2013-05-12 07:11:00,
2013-05-12 02:21:00,40.0,34.0,30.16,NW,315,3.0,4.0,78,-99.99,,,-99.99,,2013-05-12 07:21:00,
2013-05-12 02:32:00,39.0,34.0,30.16,WNW,292,3.0,4.0,83,-99.99,,,-99.99,,2013-05-12 07:32:00,
2013-05-12 02:42:00,39.0,33.0,30.16,WNW,292,3.0,4.0,78,-99.99,,,-99.99,,2013-05-12 07:42:00,
2013-05-12 02:52:00,40.0,32.0,30.16,West,270,3.0,4.0,72,-99.99,,,-99.99,,2013-05-12 07:52:00,
2013-05-12 03:02:00,40.0,32.0,30.17,West,270,3.0,4.0,71,-99.99,,,-99.99,,2013-05-12 08:02:00,
2013-05-12 03:11:00,39.0,33.0,30.16,WNW,292,3.0,4.0,78,-99.99,,,-99.99,,2013-05-12 08:11:00,
2013-05-12 03:21:00,38.0,32.0,30.16,WNW,292,3.0,4.0,79,-99.99,,,-99.99,,2013-05-12 08:21:00,
2013-05-12 03:32:00,38.0,33.0,30.16,NW,315,4.0,4.0,81,-99.99,,,-99.99,,2013-05-12 08:32:00,
2013-05-12 03:41:00,38.0,32.0,30.17,NW,315,4.0,5.0,80,-99.99,,,-99.99,,2013-05-12 08:41:00,
2013-05-12 03:52:00,38.0,32.0,30.17,NW,315,4.0,5.0,80,-99.99,,,-99.99,,2013-05-12 08:52:00,
2013-05-12 04:01:00,38.0,33.0,30.17,NW,315,4.0,4.0,81,-99.99,,,-99.99,,2013-05-12 09:01:00,
2013-05-12 04:11:00,38.0,32.0,30.16,NW,315,4.0,4.0,80,-99.99,,,-99.99,,2013-05-12 09:11:00,
2013-05-12 04:21:00,38.0,32.0,30.17,NW,315,4.0,4.0,80,-99.99,,,-99.99,,2013-05-12 09:21:00,
2013-05-12 04:33:00,38.0,31.0,30.17,WNW,292,4.0,5.0,76,-99.99,,,-99.99,,2013-05-12 09:33:00,
2013-05-12 04:42:00,38.0,32.0,30.17,WNW,292,4.0,5.0,78,-99.99,,,-99.99,,2013-05-12 09:42:00,
2013-05-12 04:52:00,38.0,32.0,30.17,WNW,292,4.0,4.0,79,-99.99,,,-99.99,,2013-05-12 09:52:00,
2013-05-12 05:03:00,38.0,31.0,30.17,WNW,292,4.0,4.0,78,-99.99,,,-99.99,,2013-05-12 10:03:00,
2013-05-12 05:12:00,36.0,32.0,30.17,WNW,292,4.0,4.0,83,-99.99,,,-99.99,,2013-05-12 10:12:00,
2013-05-12 05:22:00,37.0,31.0,30.17,WNW,292,3.0,4.0,77,-99.99,,,-99.99,,2013-05-12 10:22:00,
2013-05-12 05:33:00,38.0,30.0,30.17,WNW,292,4.0,4.0,75,-99.99,,,-99.99,,2013-05-12 10:33:00,
2013-05-12 05:42:00,38.0,30.0,30.17,WNW,292,4.0,5.0,75,-99.99,,,-99.99,,2013-05-12 10:42:00,
2013-05-12 05:52:00,37.0,30.0,30.17,West,270,3.0,4.0,75,-99.99,,,-99.99,,2013-05-12 10:52:00,
2013-05-12 06:02:00,37.0,29.0,30.18,WNW,292,3.0,5.0,74,-99.99,,,-99.99,,2013-05-12 11:02:00,
2013-05-12 06:12:00,37.0,30.0,30.17,WNW,292,3.0,4.0,76,-99.99,,,-99.99,,2013-05-12 11:12:00,
2013-05-12 06:21:00,36.0,31.0,30.18,WNW,292,3.0,4.0,82,-99.99,,,-99.99,,2013-05-12 11:21:00,
2013-05-12 06:32:00,36.0,31.0,30.17,WNW,292,3.0,4.0,83,-99.99,,,-99.99,,2013-05-12 11:32:00,
2013-05-12 06:42:00,37.0,32.0,30.18,West,270,3.0,4.0,82,-99.99,,,-99.99,,2013-05-12 11:42:00,
2013-05-12 06:51:00,38.0,31.0,30.18,WNW,292,3.0,5.0,77,-99.99,,,-99.99,,2013-05-12 11:51:00,
2013-05-12 07:01:00,40.0,31.0,30.19,West,270,4.0,6.0,71,-99.99,,,-99.99,,2013-05-12 12:01:00,
2013-05-12 07:11:00,41.0,31.0,30.19,WNW,292,4.0,6.0,70,-99.99,,,-99.99,,2013-05-12 12:11:00,
2013-05-12 07:21:00,41.0,33.0,30.19,West,270,4.0,6.0,73,-99.99,,,-99.99,,2013-05-12 12:21:00,
2013-05-12 07:32:00,42.0,32.0,30.19,WNW,292,4.0,7.0,66,-99.99,,,-99.99,,2013-05-12 12:32:00,
2013-05-12 07:41:00,43.0,34.0,30.19,NW,315,4.0,6.0,70,-99.99,,,-99.99,,2013-05-12 12:41:00,
2013-05-12 07:51:00,45.0,30.0,30.19,East,90,6.0,9.0,54,-99.99,,,-99.99,,2013-05-12 12:51:00,
2013-05-12 08:01:00,46.0,31.0,30.19,NW,315,7.0,8.0,54,-99.99,,,-99.99,,2013-05-12 13:01:00,
2013-05-12 08:11:00,47.0,30.0,30.19,NNW,337,8.0,10.0,52,-99.99,,,-99.99,,2013-05-12 13:11:00,
2013-05-12 08:21:00,48.0,30.0,30.20,NNW,337,8.0,11.0,50,-99.99,,,-99.99,,2013-05-12 13:21:00,
2013-05-12 08:32:00,48.0,30.0,30.20,NW,315,8.0,11.0,49,-99.99,,,-99.99,,2013-05-12 13:32:00,
2013-05-12 08:41:00,49.0,31.0,30.21,NNW,337,8.0,11.0,49,-99.99,,,-99.99,,2013-05-12 13:41:00,
2013-05-12 08:52:00,49.0,29.0,30.21,NW,315,8.0,12.0,44,-99.99,,,-99.99,,2013-05-12 13:52:00,
2013-05-12 09:01:00,50.0,31.0,30.22,NNW,337,7.0,10.0,46,-99.99,,,-99.99,,2013-05-12 14:01:00,
2013-05-12 09:11:00,51.0,27.0,30.22,NNW,337,8.0,11.0,40,-99.99,,,-99.99,,2013-05-12 14:11:00,
2013-05-12 09:21:00,52.0,30.0,30.22,NNE,22,6.0,11.0,42,-99.99,,,-99.99,,2013-05-12 14:21:00,
2013-05-12 09:31:00,52.0,25.0,30.22,NW,315,10.0,14.0,35,-99.99,,,-99.99,,2013-05-12 14:31:00,
2013-05-12 09:42:00,52.0,29.0,30.22,NNW,337,9.0,12.0,40,-99.99,,,-99.99,,2013-05-12 14:42:00,
2013-05-12 09:52:00,53.0,27.0,30.22,NW,315,8.0,13.0,36,-99.99,,,-99.99,,2013-05-12 14:52:00,
2013-05-12 10:01:00,52.0,24.0,30.23,NW,315,10.0,14.0,33,-99.99,,,-99.99,,2013-05-12 15:01:00,
2013-05-12 10:11:00,53.0,25.0,30.23,NNW,337,12.0,16.0,34,-99.99,,,-99.99,,2013-05-12 15:11:00,
2013-05-12 10:21:00,52.0,22.0,30.23,NW,315,13.0,17.0,31,-99.99,,,-99.99,,2013-05-12 15:21:00,
2013-05-12 10:33:00,54.0,25.0,30.23,WNW,292,10.0,17.0,32,-99.99,,,-99.99,,2013-05-12 15:33:00,
2013-05-12 10:42:00,54.0,25.0,30.23,NW,315,11.0,16.0,32,-99.99,,,-99.99,,2013-05-12 15:42:00,
2013-05-12 10:52:00,54.0,23.0,30.22,NNW,337,12.0,18.0,29,-99.99,,,-99.99,,2013-05-12 15:52:00,
2013-05-12 11:02:00,54.0,28.0,30.22,NW,315,12.0,19.0,36,-99.99,,,-99.99,,2013-05-12 16:02:00,
2013-05-12 11:12:00,54.0,27.0,30.22,NW,315,11.0,18.0,35,-99.99,,,-99.99,,2013-05-12 16:12:00,
2013-05-12 11:23:00,55.0,28.0,30.22,NW,315,14.0,21.0,35,-99.99,,,-99.99,,2013-05-12 16:23:00,
2013-05-12 11:32:00,55.0,23.0,30.22,NNW,337,12.0,17.0,29,-99.99,,,-99.99,,2013-05-12 16:32:00,
2013-05-12 11:42:00,55.0,29.0,30.22,NW,315,14.0,21.0,37,-99.99,,,-99.99,,2013-05-12 16:42:00,
2013-05-12 11:52:00,56.0,27.0,30.22,East,90,11.0,20.0,33,-99.99,,,-99.99,,2013-05-12 16:52:00,
2013-05-12 12:02:00,56.0,28.0,30.22,WNW,292,11.0,16.0,35,-99.99,,,-99.99,,2013-05-12 17:02:00,
2013-05-12 12:11:00,56.0,29.0,30.22,WNW,292,11.0,16.0,35,-99.99,,,-99.99,,2013-05-12 17:11:00,
2013-05-12 12:22:00,57.0,29.0,30.21,WNW,292,10.0,17.0,34,-99.99,,,-99.99,,2013-05-12 17:22:00,
2013-05-12 12:32:00,56.0,25.0,30.21,NNW,337,11.0,16.0,30,-99.99,,,-99.99,,2013-05-12 17:32:00,
2013-05-12 12:42:00,57.0,29.0,30.21,NNW,337,11.0,16.0,34,-99.99,,,-99.99,,2013-05-12 17:42:00,
2013-05-12 12:52:00,58.0,27.0,30.21,NW,315,9.0,14.0,31,-99.99,,,-99.99,,2013-05-12 17:52:00,
2013-05-12 13:01:00,58.0,31.0,30.20,East,90,9.0,13.0,35,-99.99,,,-99.99,,2013-05-12 18:01:00,
2013-05-12 13:12:00,58.0,29.0,30.20,East,90,11.0,19.0,33,-99.99,,,-99.99,,2013-05-12 18:12:00,
2013-05-12 13:22:00,58.0,28.0,30.20,NNW,337,8.0,19.0,32,-99.99,,,-99.99,,2013-05-12 18:22:00,
2013-05-12 13:32:00,58.0,28.0,30.20,NW,315,11.0,17.0,32,-99.99,,,-99.99,,2013-05-12 18:32:00,
2013-05-12 13:41:00,58.0,30.0,30.20,NW,315,10.0,15.0,34,-99.99,,,-99.99,,2013-05-12 18:41:00,
2013-05-12 13:51:00,59.0,23.0,30.20,East,90,10.0,17.0,25,-99.99,,,-99.99,,2013-05-12 18:51:00,
2013-05-12 14:01:00,59.0,26.0,30.20,SW,225,9.0,13.0,28,-99.99,,,-99.99,,2013-05-12 19:01:00,
2013-05-12 14:11:00,59.0,26.0,30.19,NW,315,10.0,16.0,28,-99.99,,,-99.99,,2013-05-12 19:11:00,
2013-05-12 14:21:00,59.0,27.0,30.19,NNW,337,9.0,16.0,29,-99.99,,,-99.99,,2013-05-12 19:21:00,
2013-05-12 14:32:00,58.0,29.0,30.19,WNW,292,11.0,18.0,32,-99.99,,,-99.99,,2013-05-12 19:32:00,
2013-05-12 14:42:00,59.0,25.0,30.19,NW,315,12.0,17.0,27,-99.99,,,-99.99,,2013-05-12 19:42:00,
2013-05-12 14:52:00,59.0,29.0,30.19,WNW,292,12.0,20.0,31,-99.99,,,-99.99,,2013-05-12 19:52:00,
2013-05-12 15:02:00,60.0,30.0,30.18,NNW,337,11.0,17.0,33,-99.99,,,-99.99,,2013-05-12 20:02:00,
2013-05-12 15:11:00,60.0,28.0,30.18,NW,315,7.0,10.0,29,-99.99,,,-99.99,,2013-05-12 20:11:00,
2013-05-12 15:21:00,60.0,28.0,30.16,NW,315,11.0,17.0,30,-99.99,,,-99.99,,2013-05-12 20:21:00,
2013-05-12 15:32:00,60.0,32.0,30.17,WNW,292,8.0,13.0,35,-99.99,,,-99.99,,2013-05-12 20:32:00,
2013-05-12 15:42:00,60.0,34.0,30.16,WSW,247,9.0,16.0,37,-99.99,,,-99.99,,2013-05-12 20:42:00,
2013-05-12 15:51:00,61.0,29.0,30.16,NNW,337,6.0,8.0,30,-99.99,,,-99.99,,2013-05-12 20:51:00,
2013-05-12 16:01:00,61.0,32.0,30.15,NW,315,6.0,11.0,33,-99.99,,,-99.99,,2013-05-12 21:01:00,
2013-05-12 16:11:00,61.0,32.0,30.15,East,90,9.0,16.0,33,-99.99,,,-99.99,,2013-05-12 21:11:00,
2013-05-12 16:21:00,61.0,36.0,30.15,NW,315,10.0,14.0,38,-99.99,,,-99.99,,2013-05-12 21:21:00,
2013-05-12 16:33:00,61.0,31.0,30.15,NNW,337,5.0,9.0,33,-99.99,,,-99.99,,2013-05-12 21:33:00,
2013-05-12 16:42:00,61.0,31.0,30.15,WNW,292,6.0,11.0,32,-99.99,,,-99.99,,2013-05-12 21:42:00,
2013-05-12 16:52:00,62.0,31.0,30.14,NW,315,9.0,17.0,31,-99.99,,,-99.99,,2013-05-12 21:52:00,
2013-05-12 17:02:00,62.0,29.0,30.14,NW,315,8.0,14.0,29,-99.99,,,-99.99,,2013-05-12 22:02:00,
2013-05-12 17:12:00,62.0,30.0,30.14,WNW,292,8.0,14.0,30,-99.99,,,-99.99,,2013-05-12 22:12:00,
2013-05-12 17:23:00,61.0,33.0,30.14,NNW,337,9.0,13.0,34,-99.99,,,-99.99,,2013-05-12 22:23:00,
2013-05-12 17:32:00,61.0,31.0,30.13,East,90,8.0,12.0,31,-99.99,,,-99.99,,2013-05-12 22:32:00,
2013-05-12 17:42:00,61.0,30.0,30.13,NNW,337,8.0,12.0,30,-99.99,,,-99.99,,2013-05-12 22:42:00,
2013-05-12 17:52:00,61.0,26.0,30.13,East,90,9.0,13.0,27,-99.99,,,-99.99,,2013-05-12 22:52:00,
2013-05-12 18:02:00,61.0,32.0,30.13,East,90,8.0,13.0,33,-99.99,,,-99.99,,2013-05-12 23:02:00,
2013-05-12 18:12:00,61.0,29.0,30.13,NW,315,8.0,15.0,29,-99.99,,,-99.99,,2013-05-12 23:12:00,
2013-05-12 18:22:00,61.0,31.0,30.12,WNW,292,6.0,9.0,32,-99.99,,,-99.99,,2013-05-12 23:22:00,
2013-05-12 18:32:00,60.0,30.0,30.13,NW,315,10.0,13.0,32,-99.99,,,-99.99,,2013-05-12 23:32:00,
2013-05-12 18:42:00,60.0,30.0,30.12,NW,315,10.0,12.0,32,-99.99,,,-99.99,,2013-05-12 23:42:00,
2013-05-12 18:52:00,60.0,30.0,30.13,NNW,337,7.0,11.0,32,-99.99,,,-99.99,,2013-05-12 23:52:00,
2013-05-12 19:01:00,59.0,31.0,30.12,NW,315,4.0,6.0,34,-99.99,,,-99.99,,2013-05-13 00:01:00,
2013-05-12 19:11:00,59.0,30.0,30.12,NW,315,7.0,10.0,33,-99.99,,,-99.99,,2013-05-13 00:11:00,
2013-05-12 19:21:00,59.0,30.0,30.13,NNW,337,4.0,6.0,33,-99.99,,,-99.99,,2013-05-13 00:21:00,
2013-05-12 19:32:00,59.0,36.0,30.12,NW,315,3.0,5.0,42,-99.99,,,-99.99,,2013-05-13 00:32:00,
2013-05-12 19:41:00,57.0,34.0,30.13,NNW,337,4.0,6.0,42,-99.99,,,-99.99,,2013-05-13 00:41:00,
2013-05-12 19:51:00,57.0,36.0,30.12,NW,315,4.0,5.0,46,-99.99,,,-99.99,,2013-05-13 00:51:00,
2013-05-12 20:01:00,56.0,39.0,30.13,NW,315,2.0,3.0,53,-99.99,,,-99.99,,2013-05-13 01:01:00,
2013-05-12 20:11:00,55.0,38.0,30.12,WNW,292,2.0,3.0,52,-99.99,,,-99.99,,2013-05-13 01:11:00,
2013-05-12 20:22:00,54.0,41.0,30.13,WNW,292,2.0,3.0,61,-99.99,,,-99.99,,2013-05-13 01:22:00,
2013-05-12 20:31:00,53.0,39.0,30.12,WNW,292,2.0,2.0,61,-99.99,,,-99.99,,2013-05-13 01:31:00,
2013-05-12 20:41:00,52.0,40.0,30.13,WNW,292,2.0,2.0,61,-99.99,,,-99.99,,2013-05-13 01:41:00,
2013-05-12 20:52:00,52.0,37.0,30.13,WNW,292,1.0,2.0,57,-99.99,,,-99.99,,2013-05-13 01:52:00,
2013-05-12 21:01:00,52.0,37.0,30.14,WNW,292,0.0,-999.0,58,-99.99,,,-99.99,,2013-05-13 02:01:00,
2013-05-12 21:11:00,51.0,38.0,30.14,WNW,292,0.0,-999.0,59,-99.99,,,-99.99,,2013-05-13 02:11:00,
2013-05-12 21:21:00,50.0,35.0,30.14,WNW,292,0.0,-999.0,55,-99.99,,,-99.99,,2013-05-13 02:21:00,
2013-05-12 21:31:00,51.0,36.0,30.14,WNW,292,0.0,-999.0,56,-99.99,,,-99.99,,2013-05-13 02:31:00,
2013-05-12 21:41:00,50.0,33.0,30.14,WNW,292,0.0,-999.0,52,-99.99,,,-99.99,,2013-05-13 02:41:00,
2013-05-12 21:51:00,51.0,32.0,30.15,WNW,292,0.0,-999.0,49,-99.99,,,-99.99,,2013-05-13 02:51:00,
2013-05-12 22:02:00,50.0,38.0,30.15,WNW,292,0.0,-999.0,62,-99.99,,,-99.99,,2013-05-13 03:02:00,
2013-05-12 22:11:00,50.0,33.0,30.15,WNW,292,0.0,-999.0,53,-99.99,,,-99.99,,2013-05-13 03:11:00,
2013-05-12 22:21:00,50.0,35.0,30.15,WNW,292,0.0,-999.0,55,-99.99,,,-99.99,,2013-05-13 03:21:00,
2013-05-12 22:32:00,50.0,38.0,30.15,WNW,292,0.0,-999.0,66,-99.99,,,-99.99,,2013-05-13 03:32:00,
2013-05-12 22:42:00,49.0,39.0,30.15,WNW,292,0.0,-999.0,68,-99.99,,,-99.99,,2013-05-13 03:42:00,
2013-05-12 22:52:00,49.0,40.0,30.15,West,270,0.0,-999.0,70,-99.99,,,-99.99,,2013-05-13 03:52:00,
2013-05-12 23:02:00,49.0,35.0,30.15,West,270,0.0,-999.0,59,-99.99,,,-99.99,,2013-05-13 04:02:00,
2013-05-12 23:12:00,49.0,34.0,30.15,West,270,0.0,-999.0,56,-99.99,,,-99.99,,2013-05-13 04:12:00,
2013-05-12 23:23:00,48.0,36.0,30.15,NNW,337,0.0,-999.0,64,-99.99,,,-99.99,,2013-05-13 04:23:00,
2013-05-12 23:32:00,46.0,38.0,30.15,SW,225,2.0,3.0,72,-99.99,,,-99.99,,2013-05-13 04:32:00,
2013-05-12 23:41:00,45.0,39.0,30.15,SW,225,2.0,3.0,79,-99.99,,,-99.99,,2013-05-13 04:41:00,
2013-05-12 23:52:00,45.0,34.0,30.15,SW,225,2.0,3.0,67,-99.99,,,-99.99,,2013-05-13 04:52:00,